| time (UTC) | temp F | wind direction | speed MPH | gust MPH | rain 1hr in | rain 24hr in | rain mn in | humidity % | barometer mb |
| 20260505153003 | 85 | 234 | 1.0 | 4.0 | 0.00 | 0.00 | 0.00 | 62 | 1014.9 |
| 20260505151506 | 84 | 104 | 0.0 | 3.0 | 0.00 | 0.00 | 0.00 | 65 | 1015.1 |
| 20260505124513 | 79 | 111 | 2.0 | 4.0 | 0.00 | 0.00 | 0.00 | 81 | 1014.5 |
| 20260505123015 | 78 | 47 | 1.0 | 2.0 | 0.00 | 0.00 | 0.00 | 82 | 1014.5 |
| 20260505121520 | 76 | 82 | 1.0 | 2.0 | 0.00 | 0.00 | 0.00 | 84 | 1014.4 |
| 20260505120006 | 75 | 11 | 1.0 | 3.0 | 0.00 | 0.00 | 0.00 | 86 | 1014.3 |
| 20260505114509 | 74 | 54 | 0.0 | 2.0 | 0.00 | 0.00 | 0.00 | 88 | 1014.2 |
| 20260505113018 | 72 | 48 | 0.0 | 2.0 | 0.00 | 0.00 | 0.00 | 91 | 1014.0 |
| 20260505111520 | 71 | 19 | 0.0 | 2.0 | 0.00 | 0.00 | 0.00 | 91 | 1014.1 |
| 20260505101519 | 71 | 28 | 0.0 | 2.0 | 0.00 | 0.03 | 0.00 | 91 | 1013.6 |
| 20260505100024 | 72 | 35 | 0.0 | 2.0 | 0.00 | 0.03 | 0.00 | 90 | 1013.4 |
| 20260505094506 | 72 | 51 | 0.0 | 2.0 | 0.00 | 0.03 | 0.00 | 90 | 1013.1 |
| 20260505093025 | 72 | 51 | 0.0 | 2.0 | 0.00 | 0.03 | 0.00 | 90 | 1013.2 |
| 20260505091518 | 72 | 44 | 0.0 | 2.0 | 0.00 | 0.03 | 0.00 | 90 | 1013.0 |
| 20260505090024 | 72 | 58 | 0.0 | 2.0 | 0.00 | 0.03 | 0.00 | 90 | 1012.9 |
| 20260505084526 | 72 | 75 | 1.0 | 2.0 | 0.00 | 0.03 | 0.00 | 90 | 1012.8 |
| 20260505083008 | 72 | 100 | 0.0 | 3.0 | 0.00 | 0.03 | 0.00 | 90 | 1012.7 |
| 20260505081521 | 72 | 98 | 1.0 | 2.0 | 0.00 | 0.03 | 0.00 | 90 | 1012.8 |
| 20260505080020 | 72 | 32 | 0.0 | 2.0 | 0.00 | 0.03 | 0.00 | 90 | 1013.0 |
| 20260505074522 | 72 | 67 | 0.0 | 2.0 | 0.00 | 0.03 | 0.00 | 90 | 1013.3 |
| 20260505073036 | 72 | 32 | 0.0 | 3.0 | 0.00 | 0.05 | 0.00 | 90 | 1013.4 |
| 20260505071511 | 72 | 51 | 1.0 | 2.0 | 0.00 | 0.07 | 0.00 | 89 | 1013.1 |
| 20260505070020 | 73 | 25 | 1.0 | 3.0 | 0.00 | 0.07 | 0.00 | 89 | 1013.2 |
| 20260505064525 | 73 | 65 | 0.0 | 3.0 | 0.00 | 0.07 | 0.00 | 89 | 1013.2 |
| 20260505063026 | 73 | 46 | 0.0 | 2.0 | 0.00 | 0.07 | 0.00 | 88 | 1013.6 |
| 20260505061510 | 73 | 57 | 0.0 | 2.0 | 0.00 | 0.07 | 0.00 | 88 | 1013.9 |
| 20260505060027 | 73 | 71 | 0.0 | 3.0 | 0.00 | 0.07 | 0.00 | 88 | 1013.9 |
| 20260505054534 | 73 | 97 | 0.0 | 4.0 | 0.00 | 0.07 | 0.00 | 88 | 1014.0 |
| 20260505053027 | 73 | 58 | 1.0 | 3.0 | 0.00 | 0.07 | 0.00 | 88 | 1014.2 |
| 20260505051528 | 74 | 59 | 0.0 | 3.0 | 0.00 | 0.07 | 0.00 | 87 | 1014.3 |
| 20260505041525 | 74 | 37 | 0.0 | 3.0 | 0.00 | 0.07 | 0.00 | 87 | 1014.6 |
| 20260505040029 | 74 | 72 | 0.0 | 2.0 | 0.00 | 0.07 | 0.00 | 86 | 1014.7 |
| 20260505034520 | 74 | 45 | 0.0 | 2.0 | 0.00 | 0.07 | 0.07 | 85 | 1014.9 |
| 20260505033022 | 74 | 38 | 0.0 | 2.0 | 0.00 | 0.07 | 0.07 | 85 | 1014.9 |
| 20260505031525 | 74 | 78 | 0.0 | 3.0 | 0.00 | 0.07 | 0.07 | 84 | 1014.6 |
| 20260505030028 | 75 | 29 | 1.0 | 4.0 | 0.00 | 0.07 | 0.07 | 83 | 1014.4 |
| 20260505024514 | 75 | 58 | 1.0 | 6.0 | 0.00 | 0.07 | 0.07 | 83 | 1014.6 |
| 20260505023022 | 75 | 92 | 2.0 | 6.0 | 0.00 | 0.07 | 0.07 | 83 | 1014.6 |
| 20260505021523 | 74 | 80 | 2.0 | 6.0 | 0.00 | 0.07 | 0.07 | 84 | 1014.4 |
| 20260505020026 | 74 | 126 | 1.0 | 4.0 | 0.00 | 0.07 | 0.07 | 84 | 1014.7 |
| 20260505014531 | 74 | 51 | 2.0 | 8.0 | 0.00 | 0.07 | 0.07 | 84 | 1014.4 |
| 20260505013017 | 74 | 94 | 1.0 | 8.0 | 0.00 | 0.07 | 0.07 | 84 | 1014.4 |
| 20260505011523 | 75 | 129 | 2.0 | 7.0 | 0.00 | 0.07 | 0.07 | 84 | 1014.2 |
| 20260505010026 | 75 | 70 | 2.0 | 9.0 | 0.00 | 0.07 | 0.07 | 83 | 1014.2 |
| 20260505004540 | 75 | 66 | 4.0 | 10.0 | 0.00 | 0.07 | 0.07 | 82 | 1014.0 |
| 20260505003028 | 75 | 64 | 3.0 | 8.0 | 0.00 | 0.07 | 0.07 | 83 | 1014.1 |
| 20260505001522 | 75 | 108 | 2.0 | 10.0 | 0.00 | 0.07 | 0.07 | 83 | 1014.1 |
| 20260505000026 | 75 | 52 | 2.0 | 10.0 | 0.00 | 0.07 | 0.07 | 84 | 1014.0 |
| 20260504234535 | 75 | 86 | 4.0 | 10.0 | 0.00 | 0.07 | 0.07 | 84 | 1013.8 |
| 20260504233026 | 75 | 22 | 3.0 | 9.0 | 0.00 | 0.07 | 0.07 | 83 | 1013.7 |
| 20260504231538 | 75 | 95 | 2.0 | 10.0 | 0.00 | 0.07 | 0.07 | 83 | 1013.5 |
| 20260504230024 | 76 | 90 | 4.0 | 11.0 | 0.00 | 0.07 | 0.07 | 83 | 1013.6 |
| 20260504224529 | 77 | 87 | 4.0 | 10.0 | 0.00 | 0.07 | 0.07 | 78 | 1013.6 |
| 20260504223029 | 77 | 110 | 2.0 | 10.0 | 0.00 | 0.07 | 0.07 | 78 | 1013.5 |
| 20260504221528 | 77 | 105 | 3.0 | 10.0 | 0.00 | 0.07 | 0.07 | 80 | 1013.6 |
| 20260504220022 | 76 | 77 | 4.0 | 13.0 | 0.00 | 0.07 | 0.07 | 81 | 1013.4 |
| 20260504214536 | 76 | 67 | 4.0 | 13.0 | 0.00 | 0.07 | 0.07 | 79 | 1013.3 |
| 20260504213029 | 76 | 78 | 5.0 | 14.0 | 0.00 | 0.07 | 0.07 | 80 | 1013.5 |
| 20260504211529 | 77 | 184 | 7.0 | 12.0 | 0.00 | 0.07 | 0.07 | 80 | 1013.7 |
| 20260504210028 | 78 | 96 | 4.0 | 11.0 | 0.00 | 0.07 | 0.07 | 78 | 1013.7 |
| 20260504204551 | 78 | 81 | 3.0 | 10.0 | 0.00 | 0.07 | 0.07 | 77 | 1013.8 |
| 20260504203029 | 79 | 107 | 4.0 | 10.0 | 0.00 | 0.07 | 0.07 | 76 | 1013.6 |
| 20260504201526 | 79 | 94 | 4.0 | 11.0 | 0.00 | 0.07 | 0.07 | 76 | 1013.9 |
| 20260504200035 | 79 | 63 | 3.0 | 11.0 | 0.00 | 0.07 | 0.07 | 76 | 1014.0 |
| 20260504194521 | 79 | 109 | 4.0 | 12.0 | 0.00 | 0.07 | 0.07 | 76 | 1014.1 |
| 20260504193026 | 78 | 62 | 4.0 | 14.0 | 0.00 | 0.07 | 0.07 | 77 | 1014.3 |
| 20260504191530 | 79 | 123 | 2.0 | 11.0 | 0.00 | 0.07 | 0.07 | 77 | 1014.4 |
| 20260504190016 | 79 | 20 | 5.0 | 15.0 | 0.00 | 0.07 | 0.07 | 76 | 1014.4 |
| 20260504184525 | 79 | 81 | 4.0 | 12.0 | 0.00 | 0.07 | 0.07 | 78 | 1014.7 |
| 20260504183027 | 78 | 107 | 5.0 | 12.0 | 0.00 | 0.07 | 0.07 | 77 | 1014.9 |
| 20260504181511 | 77 | 66 | 4.0 | 11.0 | 0.00 | 0.07 | 0.07 | 76 | 1015.1 |
| 20260504180016 | 77 | 124 | 7.0 | 16.0 | 0.00 | 0.07 | 0.07 | 78 | 1015.2 |
| 20260504174518 | 76 | 38 | 3.0 | 12.0 | 0.00 | 0.07 | 0.07 | 83 | 1015.3 |
| 20260504173025 | 78 | 128 | 4.0 | 14.0 | 0.00 | 0.07 | 0.07 | 80 | 1015.4 |
| 20260504171538 | 80 | 65 | 2.0 | 9.0 | 0.00 | 0.07 | 0.07 | 76 | 1015.3 |